Location: Newark
(44.1906°N, 75.9681°W)
Time: 22:07:16
(UTC+00:00)

Envisat - Pass Details

Date: 01 February 2020
Orbit: 764 x 766 km, 98.1° (Epoch: 19 February)

Event Time Altitude Azimuth Distance (km) Brightness Sun altitude
Rises 10:13:38 0° 35° (NE) 3,240 6.7 -23.2°
Reaches altitude 10° 10:17:49 10° 68° (ENE) 2,306 6.4 -22.5°
Maximum altitude 10:19:24 11° 87° (E) 2,207 6.5 -22.2°
Drops below altitude 10° 10:21:00 10° 106° (ESE) 2,300 6.6 -21.9°
Sets 10:25:08 0° 139° (SE) 3,218 6.9 -21.1°
